Wetterdaten: Samstag, 17.01.2015
Datum Zeit Temp. A. Feuchte A. Luftdruck Regen Wind Richtung Richtung Sonnenschein ET UV Solar Taupunkt Windchill Windben Empfang
17.01.2015 00:00 0,4 C 82 % 1005,6 hPa 0,0 l/m 0,0 km/h (0 Bft) S 181 0 min 0,000 mm 0,0 UV-I 0 W/m -2,3 C 0,4 C 0,0 km/h (0 Bft) 0,00 %
17.01.2015 00:15 0,4 C 83 % 1005,6 hPa 0,0 l/m 0,0 km/h (0 Bft) SW 231 0 min 0,000 mm 0,0 UV-I 0 W/m -2,1 C 0,4 C 0,0 km/h (0 Bft) 0,00 %
17.01.2015 00:30 0,2 C 83 % 1005,3 hPa 0,0 l/m 0,0 km/h (0 Bft) S-SW 208 0 min 0,000 mm 0,0 UV-I 0 W/m -2,3 C 0,2 C 0,0 km/h (0 Bft) 0,00 %
17.01.2015 00:45 0,3 C 83 % 1005,2 hPa 0,0 l/m 0,0 km/h (0 Bft) S-SW 211 0 min 0,000 mm 0,0 UV-I 0 W/m -2,2 C 0,3 C 0,0 km/h (0 Bft) 0,00 %
17.01.2015 01:00 0,2 C 83 % 1005,0 hPa 0,0 l/m 0,0 km/h (0 Bft) S 191 0 min 0,000 mm 0,0 UV-I 0 W/m -2,3 C 0,2 C 0,0 km/h (0 Bft) 0,00 %
17.01.2015 01:15 0,0 C 83 % 1004,9 hPa 0,0 l/m 0,0 km/h (0 Bft) O-SO 109 0 min 0,000 mm 0,0 UV-I 0 W/m -2,5 C 0,0 C 0,0 km/h (0 Bft) 0,00 %
17.01.2015 01:30 0,1 C 83 % 1004,9 hPa 0,0 l/m 0,0 km/h (0 Bft) S-SW 196 0 min 0,000 mm 0,0 UV-I 0 W/m -2,4 C 0,1 C 0,0 km/h (0 Bft) 0,00 %
17.01.2015 01:45 0,2 C 83 % 1004,5 hPa 0,0 l/m 0,0 km/h (0 Bft) S-SW 197 0 min 0,000 mm 0,0 UV-I 0 W/m -2,3 C 0,2 C 0,0 km/h (0 Bft) 0,00 %
17.01.2015 02:00 0,1 C 83 % 1004,9 hPa 0,0 l/m 0,0 km/h (0 Bft) W-SW 255 0 min 0,000 mm 0,0 UV-I 0 W/m -2,4 C 0,1 C 0,0 km/h (0 Bft) 0,00 %
17.01.2015 02:15 -0,1 C 83 % 1004,9 hPa 0,0 l/m 0,0 km/h (0 Bft) W-SW 253 0 min 0,000 mm 0,0 UV-I 0 W/m -2,6 C -0,1 C 0,0 km/h (0 Bft) 0,00 %
17.01.2015 02:30 -0,2 C 83 % 1004,7 hPa 0,0 l/m 0,0 km/h (0 Bft) W-SW 242 0 min 0,000 mm 0,0 UV-I 0 W/m -2,7 C -0,2 C 0,0 km/h (0 Bft) 0,00 %
17.01.2015 02:45 -0,3 C 83 % 1005,6 hPa 0,0 l/m 0,0 km/h (0 Bft) W-SW 250 0 min 0,000 mm 0,0 UV-I 0 W/m -2,8 C -0,3 C 0,0 km/h (0 Bft) 0,00 %
17.01.2015 03:00 0,2 C 83 % 1006,1 hPa 0,0 l/m 0,0 km/h (0 Bft) S 176 0 min 0,000 mm 0,0 UV-I 0 W/m -2,3 C 0,2 C 0,0 km/h (0 Bft) 0,00 %
17.01.2015 03:15 0,3 C 83 % 1006,2 hPa 0,0 l/m 0,0 km/h (0 Bft) SW 218 0 min 0,000 mm 0,0 UV-I 0 W/m -2,2 C 0,3 C 0,0 km/h (0 Bft) 0,00 %
17.01.2015 03:30 0,4 C 82 % 1006,6 hPa 0,0 l/m 0,0 km/h (0 Bft) W-SW 251 0 min 0,000 mm 0,0 UV-I 0 W/m -2,3 C 0,4 C 0,0 km/h (0 Bft) 0,00 %
17.01.2015 03:45 0,7 C 81 % 1006,9 hPa 0,0 l/m 0,7 km/h (0 Bft) SO 131 0 min 0,000 mm 0,0 UV-I 0 W/m -2,2 C 0,7 C 4,0 km/h (1 Bft) 0,00 %
17.01.2015 04:00 0,3 C 82 % 1007,2 hPa 0,0 l/m 0,0 km/h (0 Bft) W-SW 251 0 min 0,000 mm 0,0 UV-I 0 W/m -2,4 C 0,3 C 0,0 km/h (0 Bft) 0,00 %
17.01.2015 04:15 0,2 C 82 % 1007,5 hPa 0,0 l/m 0,0 km/h (0 Bft) W-SW 255 0 min 0,000 mm 0,0 UV-I 0 W/m -2,5 C 0,2 C 0,0 km/h (0 Bft) 0,00 %
17.01.2015 04:30 0,1 C 82 % 1007,7 hPa 0,0 l/m 0,4 km/h (0 Bft) SW 219 0 min 0,000 mm 0,0 UV-I 0 W/m -2,6 C 0,1 C 4,0 km/h (1 Bft) 0,00 %
17.01.2015 04:45 0,1 C 82 % 1007,9 hPa 0,0 l/m 0,7 km/h (0 Bft) W 270 0 min 0,000 mm 0,0 UV-I 0 W/m -2,6 C 0,1 C 4,0 km/h (1 Bft) 0,00 %
17.01.2015 05:00 0,9 C 80 % 1008,2 hPa 0,0 l/m 0,7 km/h (0 Bft) W-SW 248 0 min 0,000 mm 0,0 UV-I 0 W/m -2,2 C 0,9 C 4,0 km/h (1 Bft) 0,00 %
17.01.2015 05:15 1,3 C 79 % 1008,2 hPa 0,0 l/m 0,0 km/h (0 Bft) S 183 0 min 0,000 mm 0,0 UV-I 0 W/m -1,9 C 1,3 C 0,0 km/h (0 Bft) 0,00 %
17.01.2015 05:30 1,6 C 77 % 1008,4 hPa 0,0 l/m 1,8 km/h (1 Bft) S-SW 211 0 min 0,000 mm 0,0 UV-I 0 W/m -2,0 C 1,6 C 4,0 km/h (1 Bft) 0,00 %
17.01.2015 05:45 2,0 C 76 % 1008,7 hPa 0,0 l/m 0,7 km/h (0 Bft) S-SW 194 0 min 0,000 mm 0,0 UV-I 0 W/m -1,8 C 2,0 C 4,0 km/h (1 Bft) 0,00 %
17.01.2015 06:00 2,1 C 76 % 1009,0 hPa 0,0 l/m 1,4 km/h (1 Bft) W-SW 255 0 min 0,000 mm 0,0 UV-I 0 W/m -1,7 C 2,1 C 4,0 km/h (1 Bft) 0,00 %
17.01.2015 06:15 2,2 C 75 % 1008,8 hPa 0,0 l/m 1,4 km/h (1 Bft) W 262 0 min 0,000 mm 0,0 UV-I 0 W/m -1,8 C 2,2 C 4,0 km/h (1 Bft) 0,00 %
17.01.2015 06:30 2,0 C 76 % 1008,9 hPa 0,0 l/m 0,0 km/h (0 Bft) S-SW 202 0 min 0,000 mm 0,0 UV-I 0 W/m -1,8 C 2,0 C 0,0 km/h (0 Bft) 0,00 %
17.01.2015 06:45 2,0 C 76 % 1009,4 hPa 0,0 l/m 0,0 km/h (0 Bft) S-SW 212 0 min 0,000 mm 0,0 UV-I 0 W/m -1,8 C 2,0 C 0,0 km/h (0 Bft) 0,00 %
17.01.2015 07:00 1,9 C 77 % 1009,5 hPa 0,0 l/m 0,0 km/h (0 Bft) W-SW 254 0 min 0,000 mm 0,0 UV-I 0 W/m -1,7 C 1,9 C 0,0 km/h (0 Bft) 0,00 %
17.01.2015 07:15 2,0 C 77 % 1009,7 hPa 0,0 l/m 0,0 km/h (0 Bft) SW 224 0 min 0,000 mm 0,0 UV-I 0 W/m -1,6 C 2,0 C 0,0 km/h (0 Bft) 0,00 %
17.01.2015 07:30 1,8 C 78 % 1010,0 hPa 0,0 l/m 0,0 km/h (0 Bft) SW 217 0 min 0,000 mm 0,0 UV-I 0 W/m -1,6 C 1,8 C 0,0 km/h (0 Bft) 0,00 %
17.01.2015 07:45 2,0 C 78 % 1010,3 hPa 0,0 l/m 0,0 km/h (0 Bft) SW 223 0 min 0,000 mm 0,0 UV-I 0 W/m -1,4 C 2,0 C 0,0 km/h (0 Bft) 0,00 %
17.01.2015 08:00 2,3 C 78 % 1010,6 hPa 0,0 l/m 0,0 km/h (0 Bft) W-SW 255 0 min 0,000 mm 0,0 UV-I 0 W/m -1,1 C 2,3 C 0,0 km/h (0 Bft) 0,00 %
17.01.2015 08:15 2,5 C 82 % 1010,9 hPa 0,0 l/m 0,7 km/h (0 Bft) W-SW 258 0 min 0,000 mm 0,0 UV-I 0 W/m -0,3 C 2,5 C 4,0 km/h (1 Bft) 0,00 %
17.01.2015 08:30 2,8 C 82 % 1011,1 hPa 0,0 l/m 0,0 km/h (0 Bft) SW 216 0 min 0,000 mm 0,0 UV-I 0 W/m 0,0 C 2,8 C 0,0 km/h (0 Bft) 0,00 %
17.01.2015 08:45 3,0 C 83 % 1011,2 hPa 0,0 l/m 0,4 km/h (0 Bft) S 185 0 min 0,000 mm 0,0 UV-I 0 W/m 0,4 C 3,0 C 4,0 km/h (1 Bft) 0,00 %
17.01.2015 09:00 3,2 C 83 % 1011,7 hPa 0,0 l/m 0,7 km/h (0 Bft) W-SW 252 0 min 0,000 mm 0,0 UV-I 21 W/m 0,6 C 3,2 C 4,0 km/h (1 Bft) 0,00 %
17.01.2015 09:15 3,3 C 83 % 1011,8 hPa 0,0 l/m 0,4 km/h (0 Bft) W-SW 254 0 min 0,000 mm 0,0 UV-I 84 W/m 0,7 C 3,3 C 4,0 km/h (1 Bft) 0,00 %
17.01.2015 09:30 3,4 C 83 % 1012,0 hPa 0,0 l/m 0,0 km/h (0 Bft) SW 224 0 min 0,000 mm 0,0 UV-I 87 W/m 0,8 C 3,4 C 0,0 km/h (0 Bft) 0,00 %
17.01.2015 09:45 3,5 C 82 % 1012,1 hPa 0,0 l/m 0,0 km/h (0 Bft) S-SW 212 0 min 0,000 mm 0,0 UV-I 42 W/m 0,7 C 3,5 C 0,0 km/h (0 Bft) 0,00 %
17.01.2015 10:00 3,5 C 81 % 1012,3 hPa 0,0 l/m 2,9 km/h (1 Bft) W-SW 252 0 min 0,000 mm 0,0 UV-I 84 W/m 0,6 C 3,5 C 4,0 km/h (1 Bft) 0,00 %
17.01.2015 10:15 3,5 C 80 % 1012,4 hPa 0,0 l/m 0,0 km/h (0 Bft) W-SW 251 0 min 0,000 mm 0,0 UV-I 54 W/m 0,4 C 3,5 C 0,0 km/h (0 Bft) 0,00 %
17.01.2015 10:30 3,4 C 82 % 1012,3 hPa 0,0 l/m 0,0 km/h (0 Bft) SW 220 0 min 0,000 mm 0,0 UV-I 36 W/m 0,6 C 3,4 C 0,0 km/h (0 Bft) 0,00 %
17.01.2015 10:45 3,5 C 81 % 1012,4 hPa 0,0 l/m 0,0 km/h (0 Bft) SW 233 0 min 0,000 mm 0,0 UV-I 53 W/m 0,6 C 3,5 C 0,0 km/h (0 Bft) 0,00 %
17.01.2015 11:00 3,5 C 81 % 1012,4 hPa 0,0 l/m 0,4 km/h (0 Bft) SW 217 15 min 0,000 mm 0,0 UV-I 199 W/m 0,6 C 3,5 C 4,0 km/h (1 Bft) 0,00 %
17.01.2015 11:15 3,5 C 79 % 1012,2 hPa 0,0 l/m 0,0 km/h (0 Bft) S 175 15 min 0,000 mm 1,0 UV-I 200 W/m 0,2 C 3,5 C 0,0 km/h (0 Bft) 0,00 %
17.01.2015 11:30 3,6 C 78 % 1012,3 hPa 0,0 l/m 0,4 km/h (0 Bft) NW 320 0 min 0,000 mm 0,0 UV-I 59 W/m 0,1 C 3,6 C 4,0 km/h (1 Bft) 0,00 %
17.01.2015 11:45 3,5 C 79 % 1012,5 hPa 0,0 l/m 0,0 km/h (0 Bft) W-SW 254 0 min 0,000 mm 0,0 UV-I 41 W/m 0,2 C 3,5 C 0,0 km/h (0 Bft) 0,00 %
17.01.2015 12:00 3,5 C 79 % 1012,6 hPa 0,0 l/m 0,0 km/h (0 Bft) SW 230 0 min 0,000 mm 0,0 UV-I 84 W/m 0,2 C 3,5 C 0,0 km/h (0 Bft) 0,00 %
17.01.2015 12:15 3,4 C 81 % 1012,5 hPa 0,0 l/m 0,0 km/h (0 Bft) SW 230 0 min 0,000 mm 0,0 UV-I 73 W/m 0,5 C 3,4 C 0,0 km/h (0 Bft) 0,00 %
17.01.2015 12:30 3,4 C 82 % 1012,9 hPa 0,0 l/m 0,0 km/h (0 Bft) W-SW 253 0 min 0,000 mm 0,0 UV-I 58 W/m 0,6 C 3,4 C 0,0 km/h (0 Bft) 0,00 %
17.01.2015 12:45 3,3 C 82 % 1012,8 hPa 0,3 l/m 0,0 km/h (0 Bft) S-SW 210 0 min 0,000 mm 0,0 UV-I 65 W/m 0,5 C 3,3 C 0,0 km/h (0 Bft) 0,00 %
17.01.2015 13:00 3,2 C 83 % 1012,5 hPa 0,0 l/m 0,0 km/h (0 Bft) S-SW 213 15 min 0,000 mm 1,0 UV-I 199 W/m 0,6 C 3,2 C 0,0 km/h (0 Bft) 0,00 %
17.01.2015 13:15 3,2 C 83 % 1012,4 hPa 0,0 l/m 0,0 km/h (0 Bft) S-SW 209 0 min 0,000 mm 1,0 UV-I 189 W/m 0,6 C 3,2 C 0,0 km/h (0 Bft) 0,00 %
17.01.2015 13:30 3,2 C 83 % 1012,6 hPa 0,0 l/m 0,0 km/h (0 Bft) S-SW 212 15 min 0,000 mm 0,0 UV-I 222 W/m 0,6 C 3,2 C 0,0 km/h (0 Bft) 0,00 %
17.01.2015 13:45 3,2 C 83 % 1012,3 hPa 0,0 l/m 0,0 km/h (0 Bft) SW 223 15 min 0,000 mm 0,0 UV-I 211 W/m 0,6 C 3,2 C 0,0 km/h (0 Bft) 0,00 %
17.01.2015 14:00 3,0 C 83 % 1012,5 hPa 0,0 l/m 0,0 km/h (0 Bft) SW 226 0 min 0,000 mm 0,0 UV-I 36 W/m 0,4 C 3,0 C 0,0 km/h (0 Bft) 0,00 %
17.01.2015 14:15 2,9 C 83 % 1012,6 hPa 0,0 l/m 0,0 km/h (0 Bft) W-SW 256 0 min 0,000 mm 0,0 UV-I 4 W/m 0,3 C 2,9 C 0,0 km/h (0 Bft) 0,00 %
17.01.2015 14:30 2,4 C 79 % 1012,8 hPa 0,6 l/m 2,2 km/h (1 Bft) W-SW 256 0 min 0,000 mm 0,0 UV-I 20 W/m -0,9 C 2,4 C 4,0 km/h (1 Bft) 0,00 %
17.01.2015 14:45 1,8 C 79 % 1012,9 hPa 0,3 l/m 0,0 km/h (0 Bft) SW 214 0 min 0,000 mm 0,0 UV-I 6 W/m -1,4 C 1,8 C 0,0 km/h (0 Bft) 0,00 %
17.01.2015 15:00 1,7 C 80 % 1013,0 hPa 0,3 l/m 0,0 km/h (0 Bft) SW 216 0 min 0,000 mm 0,0 UV-I 53 W/m -1,4 C 1,7 C 0,0 km/h (0 Bft) 0,00 %
17.01.2015 15:15 1,7 C 80 % 1013,0 hPa 0,3 l/m 0,0 km/h (0 Bft) W-SW 252 0 min 0,000 mm 0,0 UV-I 13 W/m -1,4 C 1,7 C 0,0 km/h (0 Bft) 0,00 %
17.01.2015 15:30 1,6 C 81 % 1013,3 hPa 0,0 l/m 1,4 km/h (1 Bft) W-SW 254 0 min 0,000 mm 0,0 UV-I 0 W/m -1,3 C 1,6 C 4,0 km/h (1 Bft) 0,00 %
17.01.2015 15:45 1,4 C 82 % 1013,7 hPa 0,0 l/m 0,0 km/h (0 Bft) SW 224 0 min 0,000 mm 0,0 UV-I 0 W/m -1,3 C 1,4 C 0,0 km/h (0 Bft) 0,00 %
17.01.2015 16:00 1,1 C 81 % 1013,9 hPa 0,3 l/m 2,2 km/h (1 Bft) W-SW 252 0 min 0,000 mm 0,0 UV-I 0 W/m -1,8 C 1,1 C 4,0 km/h (1 Bft) 0,00 %
17.01.2015 16:15 0,6 C 81 % 1014,2 hPa 0,0 l/m 0,0 km/h (0 Bft) SW 223 0 min 0,000 mm 0,0 UV-I 0 W/m -2,3 C 0,6 C 0,0 km/h (0 Bft) 0,00 %
17.01.2015 16:30 0,3 C 82 % 1014,6 hPa 0,3 l/m 0,0 km/h (0 Bft) W-SW 255 0 min 0,000 mm 0,0 UV-I 0 W/m -2,4 C 0,3 C 0,0 km/h (0 Bft) 0,00 %
17.01.2015 16:45 0,1 C 82 % 1014,5 hPa 0,0 l/m 0,0 km/h (0 Bft) SW 219 0 min 0,000 mm 0,0 UV-I 0 W/m -2,6 C 0,1 C 0,0 km/h (0 Bft) 0,00 %
17.01.2015 17:00 0,1 C 83 % 1014,5 hPa 0,0 l/m 0,0 km/h (0 Bft) SW 230 0 min 0,000 mm 0,0 UV-I 0 W/m -2,4 C 0,1 C 0,0 km/h (0 Bft) 0,00 %
17.01.2015 17:15 0,1 C 83 % 1014,8 hPa 0,0 l/m 0,0 km/h (0 Bft) S-SW 208 0 min 0,000 mm 0,0 UV-I 0 W/m -2,4 C 0,1 C 0,0 km/h (0 Bft) 0,00 %
17.01.2015 17:30 0,2 C 83 % 1014,9 hPa 0,3 l/m 0,0 km/h (0 Bft) SW 217 0 min 0,000 mm 0,0 UV-I 0 W/m -2,3 C 0,2 C 0,0 km/h (0 Bft) 0,00 %
17.01.2015 17:45 0,2 C 83 % 1015,2 hPa 0,0 l/m 0,0 km/h (0 Bft) SW 220 0 min 0,000 mm 0,0 UV-I 0 W/m -2,3 C 0,2 C 0,0 km/h (0 Bft) 0,00 %
17.01.2015 18:00 0,2 C 83 % 1015,5 hPa 0,0 l/m 0,0 km/h (0 Bft) SW 214 0 min 0,000 mm 0,0 UV-I 0 W/m -2,3 C 0,2 C 0,0 km/h (0 Bft) 0,00 %
17.01.2015 18:15 0,3 C 83 % 1015,5 hPa 0,3 l/m 0,0 km/h (0 Bft) W-SW 256 0 min 0,000 mm 0,0 UV-I 0 W/m -2,2 C 0,3 C 0,0 km/h (0 Bft) 0,00 %
17.01.2015 18:30 0,3 C 83 % 1015,2 hPa 0,0 l/m 0,4 km/h (0 Bft) SW 220 0 min 0,000 mm 0,0 UV-I 0 W/m -2,2 C 0,3 C 4,0 km/h (1 Bft) 0,00 %
17.01.2015 18:45 0,3 C 83 % 1015,6 hPa 0,0 l/m 0,0 km/h (0 Bft) S-SW 197 0 min 0,000 mm 0,0 UV-I 0 W/m -2,2 C 0,3 C 0,0 km/h (0 Bft) 0,00 %
17.01.2015 19:00 0,2 C 83 % 1015,9 hPa 0,0 l/m 0,0 km/h (0 Bft) S 183 0 min 0,000 mm 0,0 UV-I 0 W/m -2,3 C 0,2 C 0,0 km/h (0 Bft) 0,00 %
17.01.2015 19:15 0,2 C 83 % 1015,7 hPa 0,3 l/m 0,0 km/h (0 Bft) S-SW 210 0 min 0,000 mm 0,0 UV-I 0 W/m -2,3 C 0,2 C 0,0 km/h (0 Bft) 0,00 %
17.01.2015 19:30 0,4 C 82 % 1015,9 hPa 0,0 l/m 0,0 km/h (0 Bft) S-SW 209 0 min 0,000 mm 0,0 UV-I 0 W/m -2,3 C 0,4 C 0,0 km/h (0 Bft) 0,00 %
17.01.2015 19:45 0,6 C 82 % 1016,1 hPa 0,3 l/m 0,0 km/h (0 Bft) SW 216 0 min 0,000 mm 0,0 UV-I 0 W/m -2,1 C 0,6 C 0,0 km/h (0 Bft) 0,00 %
17.01.2015 20:00 0,8 C 82 % 1016,0 hPa 0,0 l/m 0,4 km/h (0 Bft) W-SW 253 0 min 0,000 mm 0,0 UV-I 0 W/m -1,9 C 0,8 C 4,0 km/h (1 Bft) 0,00 %
17.01.2015 20:15 0,8 C 82 % 1016,2 hPa 0,3 l/m 0,0 km/h (0 Bft) SW 231 0 min 0,000 mm 0,0 UV-I 0 W/m -1,9 C 0,8 C 0,0 km/h (0 Bft) 0,00 %
17.01.2015 20:30 0,9 C 82 % 1016,3 hPa 0,0 l/m 0,4 km/h (0 Bft) W-SW 254 0 min 0,000 mm 0,0 UV-I 0 W/m -1,8 C 0,9 C 4,0 km/h (1 Bft) 0,00 %
17.01.2015 20:45 0,9 C 82 % 1016,1 hPa 0,0 l/m 0,0 km/h (0 Bft) W-SW 253 0 min 0,000 mm 0,0 UV-I 0 W/m -1,8 C 0,9 C 0,0 km/h (0 Bft) 0,00 %
17.01.2015 21:00 0,8 C 82 % 1016,4 hPa 0,0 l/m 0,0 km/h (0 Bft) SW 224 0 min 0,000 mm 0,0 UV-I 0 W/m -1,9 C 0,8 C 0,0 km/h (0 Bft) 0,00 %
17.01.2015 21:15 0,9 C 82 % 1016,4 hPa 0,0 l/m 0,0 km/h (0 Bft) SW 235 0 min 0,000 mm 0,0 UV-I 0 W/m -1,8 C 0,9 C 0,0 km/h (0 Bft) 0,00 %
17.01.2015 21:30 0,9 C 82 % 1016,4 hPa 0,0 l/m 0,0 km/h (0 Bft) SW 219 0 min 0,000 mm 0,0 UV-I 0 W/m -1,8 C 0,9 C 0,0 km/h (0 Bft) 0,00 %
17.01.2015 21:45 0,9 C 82 % 1016,7 hPa 0,0 l/m 0,0 km/h (0 Bft) W-NW 286 0 min 0,000 mm 0,0 UV-I 0 W/m -1,8 C 0,9 C 0,0 km/h (0 Bft) 0,00 %
17.01.2015 22:00 0,9 C 82 % 1016,7 hPa 0,0 l/m 0,4 km/h (0 Bft) W-SW 252 0 min 0,000 mm 0,0 UV-I 0 W/m -1,8 C 0,9 C 4,0 km/h (1 Bft) 0,00 %
17.01.2015 22:15 1,0 C 82 % 1016,8 hPa 0,0 l/m 0,0 km/h (0 Bft) SW 219 0 min 0,000 mm 0,0 UV-I 0 W/m -1,7 C 1,0 C 0,0 km/h (0 Bft) 0,00 %
17.01.2015 22:30 1,0 C 82 % 1016,9 hPa 0,0 l/m 0,0 km/h (0 Bft) W-SW 252 0 min 0,000 mm 0,0 UV-I 0 W/m -1,7 C 1,0 C 0,0 km/h (0 Bft) 0,00 %
17.01.2015 22:45 1,0 C 82 % 1017,2 hPa 0,0 l/m 0,0 km/h (0 Bft) SW 223 0 min 0,000 mm 0,0 UV-I 0 W/m -1,7 C 1,0 C 0,0 km/h (0 Bft) 0,00 %
17.01.2015 23:00 1,0 C 82 % 1017,1 hPa 0,0 l/m 0,0 km/h (0 Bft) SW 234 0 min 0,000 mm 0,0 UV-I 0 W/m -1,7 C 1,0 C 0,0 km/h (0 Bft) 0,00 %
17.01.2015 23:15 1,0 C 82 % 1017,0 hPa 0,0 l/m 0,0 km/h (0 Bft) SW 223 0 min 0,000 mm 0,0 UV-I 0 W/m -1,7 C 1,0 C 0,0 km/h (0 Bft) 0,00 %
17.01.2015 23:30 1,0 C 82 % 1017,2 hPa 0,3 l/m 0,0 km/h (0 Bft) S-SW 195 0 min 0,000 mm 0,0 UV-I 0 W/m -1,7 C 1,0 C 0,0 km/h (0 Bft) 0,00 %
17.01.2015 23:45 0,8 C 82 % 1017,2 hPa 0,0 l/m 0,0 km/h (0 Bft) SW 232 0 min 0,000 mm 0,0 UV-I 0 W/m -1,9 C 0,8 C 0,0 km/h (0 Bft) 0,00 %
_ Min-Zeit 02:45 06:15 01:45 - 00:00 - - - - - - 02:45 02:45 00:00 00:00
Minimum _ -0,3 C 75 % 1004,5 hPa - 0,0 km/h (0 Bft) - - - - - - -2,8 C -0,3 C 0,0 km/h (0 Bft) 0,00 %
_ Max-Zeit 11:30 00:15 22:45 14:30 10:00 - - 11:00 00:00 11:15 13:30 09:30 11:30 03:45 00:00
Maximum _ 3,6 C 83 % 1017,2 hPa 0,6 l/m 2,9 km/h
W-SW (1 Bft)
- - 15 min 0,000 mm 1,0 UV-I 222 W/m 0,8 C 3,6 C 4,0 km/h
SO (1 Bft)
0,00 %
Durchschnitt _ 1,5 C 81 % 1011,8 hPa #4,2 l/m 0,2 km/h (0 Bft) W-SW - #1:15 h #0,000 mm 1,0 UV-I 84 W/m -1,4 C 1,5 C 0,9 km/h (0 Bft) 0,00 %